Regional Weather Roundup
Issued by NWS New Orleans/Baton Rouge, LA

Home | Current Version | Previous Version | Text Only | Print | Product List | Glossary On
Versions: 1 2 3 4 5 6 7 8 9 10 11 12 13 14 15 16 17 18 19 20 21 22 23 24 25 26 27 28
000
ASUS44 KLIX 251511
RWRLIX
NEW ORLEANS REGIONAL WEATHER ROUNDUP
NATIONAL WEATHER SERVICE NEW ORLEANS LA
1000 AM CDT WED MAY 25 2016

NOTE: "FAIR" INDICATES FEW OR NO CLOUDS BELOW 12,000 FEET WITH NO
      SIGNIFICANT WEATHER AND/OR OBSTRUCTIONS TO VISIBILITY.
      SKY/WX - SKY CONDITION AND SIGNIFICANT WEATHER.
      TMP - AIR TEMPERATURE.     DP    - DEWPOINT TEMPERATURE.
      RH  - RELATIVE HUMIDITY.   PRES  - PRESSURE.
      HI  - HEAT INDEX.          WCI   - WIND CHILL INDEX.

*  THESE STATIONS ARE NOT NWS OR FAA STATIONS AND ARE NOT UNDER
   NWS QUALITY CONTROL.

LAZ038-040-048-061>063-065>067-069-251600-
SOUTHEAST LOUISIANA

CITY           SKY/WX    TMP DP  RH WIND       PRES   REMARKS
N.O. AUDUBON   NOT AVBL
N.O. INTL ARPT PTSUNNY   86  73  65 S10       30.14R
N.O. LAKEFRONT CLOUDY    83  71  67 SE13      30.15R
N.O. DOWNTOWN*   N/A     83  72  69 SE7       30.15S
RESERVE*         N/A     85  74  69 S12       30.14S
SLIDELL        CLOUDY    82  73  74 S10       30.15R
BATON ROUGE    MOSUNNY   85  71  63 S14       30.13S
BOOTHVILLE     PTSUNNY   81  73  76 E8        30.16S
BELLE CHASSE   PTSUNNY   82  73  74 S9        30.14R
BOGALUSA*      CLOUDY    81  71  72 SW6       30.17S
GALLIANO*      MOSUNNY   84  74  72 S9        30.14R
NEW ROADS*     PTSUNNY   80  73  80 S8        30.13S
GONZALES*        N/A     82  74  75 S7        30.13S
HAMMOND*       PTSUNNY   81  72  74 S9        30.14F
HOUMA*         MOSUNNY   82  75  78 S9        30.14R
PORT FOURCHON* PTSUNNY   81  75  83 SE13      30.14S

$$

MSZ070-080>082-251600-
SOUTHERN MISSISSIPPI

CITY           SKY/WX    TMP DP  RH WIND       PRES   REMARKS
MCCOMB         CLOUDY    76  70  82 SW7       30.16S
GULFPORT       PTSUNNY   81  71  71 SE12      30.16S
BILOXI         MOSUNNY   81  72  73 SE7       30.16S
PASCAGOULA     PTSUNNY   79  67  66 S9        30.18S
STENNIS ARPT*  PTSUNNY   81  66  61 SE9       30.17R

$$

COASTAL OBSERVATIONS
LAKE AND NEARSHORE STATIONS

STATION/POSITION TIME  TEMP    WIND        PRES    WAVE
                       AIR SEA DIR/SP/G            HT/PER
                 (UTC) (F)     (DEG/KT/KT) (MB)    (FT/S)
PASCAGOULA       1400   80     140/  8/ 11 1021.4
WAVELAND YACHT   1400   78 79  170/  8/  9 1021.0
GRAND ISLE       1400   80 81  150/  8/ 11 1020.5
SOUTHWEST PASS   1400          150/  4/  7   N/A
SHELL BEACH      1400   79 80  140/ 10/ 12 1020.8

OFFSHORE STATIONS

STATION/POSITION TIME  TEMP    WIND        PRES    WAVE
                       AIR SEA DIR/SP/G            HT/PER
                 (UTC) (F)     (DEG/KT/KT) (MB)    (FT/S)
64 S DAUPHIN ISL 1400   77 77  130/ 10/ 14 1021.0

$$





USA.gov is the U.S. government's official web portal to all federal, state and local government web resources and services.